Dewpoint
71 67 67 69 65 65 65 65 70 72 71 71 73 72 73 69 68 70 69 72 72 67
70 70 68 69 69 66 70 66 70 72 72 72 72 73 73 68 70 71 71 70 71 70
68 70 70 70 70 69 69 70 71 72 72 72 73 72 74 71 71 71 69 67 71 72
67 68 70 69 70 70 70 72 72 73 73 73 73 72 74 74 71 72 71 70 71 71
68 68 67 68 69 70 71 71 72 73 73 73 72 72 73 73 70 70 71 70 71 70
67 67 66 67 68 69 70 71 69 72 73 72 72 73 73 73 72 70 70 71 71 70
67 66 66 66 68 68 70 70 70 71 72 72 73 71 72 72 73 72 71 71 71 71
70 69 68 68 69 68 69 70 71 71 72 72 71 67 70 71 71 72 71 71 72 71
72 72 72 72 71 71 70 72 72 71 70 70 67 64 65 68 70 71 72 71 71 72
72 72 72 72 72 72 72 72 72 71 71 71 71 65 64 67 67 69 71 71 71 69
72 72 72 72 72 73 72 72 72 71 72 72 71 65 63 66 70 69 70 71 71 72
71 72 72 72 72 73 72 72 71 71 73 73 72 63 64 67 71 70 73 74 72 72
72 72 72 72 73 73 72 72 70 71 72 69 73 65 62 66 68 67 67 75 75 67
72 72 72 73 73 73 72 73 72 73 73 74 72 73 61 60 69 64 63 70 75 76
Lifted_Index
-3 -3 -3 -3 -3 -3 -3 -3 -4 -4 -4 -4 -5 -5 -5 -5 -5 -5 -5 -5 -5 -5
-3 -3 -3 -3 -3 -3 -3 -4 -4 -5 -5 -5 -5 -5 -5 -5 -5 -5 -5 -5 -5 -5
-3 -3 -3 -3 -3 -4 -4 -4 -5 -5 -5 -5 -6 -6 -6 -5 -5 -5 -5 -5 -5 -5
-3 -3 -3 -3 -3 -4 -4 -5 -5 -6 -6 -6 -6 -6 -6 -6 -5 -5 -5 -5 -5 -5
-3 -3 -3 -3 -3 -4 -4 -5 -5 -6 -6 -6 -6 -6 -6 -6 -5 -5 -5 -5 -5 -5
-3 -3 -3 -3 -3 -3 -4 -4 -5 -5 -6 -6 -6 -6 -6 -6 -5 -5 -5 -5 -5 -5
-4 -3 -3 -3 -3 -3 -4 -4 -5 -5 -6 -6 -6 -6 -6 -6 -6 -5 -5 -5 -5 -5
-4 -4 -4 -3 -3 -4 -4 -4 -5 -5 -5 -6 -6 -5 -5 -5 -5 -6 -5 -5 -5 -5
-5 -5 -5 -4 -4 -4 -4 -5 -5 -5 -5 -5 -5 -4 -4 -4 -4 -5 -5 -5 -5 -5
-6 -6 -6 -5 -5 -5 -5 -5 -5 -5 -5 -5 -5 -4 -3 -3 -4 -4 -5 -5 -5 -5
-7 -7 -6 -6 -6 -5 -5 -5 -5 -5 -5 -5 -5 -4 -4 -3 -4 -4 -5 -5 -5 -5
-7 -7 -7 -6 -6 -6 -6 -5 -5 -5 -6 -6 -6 -5 -4 -4 -4 -4 -5 -5 -5 -5
-7 -7 -7 -7 -7 -7 -6 -6 -6 -6 -6 -6 -6 -6 -5 -4 -4 -4 -4 -5 -5 -5
-7 -7 -7 -8 -8 -7 -7 -7 -6 -6 -7 -7 -6 -6 -5 -4 -4 -3 -3 -4 -5 -5